Location: Bennemühlen
(52.5740°N, 9.7135°E)
Time: 02:09:22
(UTC+00:00)

S-56A Canister/Altair - Visible Passes

Search period start: 07 February 2026 00:00
Search period end: 17 February 2026 00:00
Orbit: 632 x 2485 km, 38.9° (Epoch: 6 February)

Date Brightness Start Highest point End Pass type
(mag) Time Alt. Az. Time Alt. Az. Time Alt. Az.
7 Feb 10.9 01:09:36 18° ESE 01:09:36 18° ESE 01:14:06 10° E visible
7 Feb 10.0 03:06:50 36° S 03:08:59 39° SSE 03:21:11 10° ESE visible
7 Feb 10.4 05:04:05 16° WSW 05:13:11 43° S 05:26:35 10° ESE visible
8 Feb 11.2 00:36:31 12° ESE 00:36:31 12° ESE 00:37:39 10° ESE visible
8 Feb 10.1 02:33:46 36° SSE 02:33:48 36° SSE 02:45:14 10° E visible
8 Feb 10.2 04:31:00 24° SW 04:37:45 43° S 04:50:54 10° ESE visible
9 Feb 10.3 02:00:40 31° SE 02:00:40 31° SE 02:09:15 10° E visible
9 Feb 10.0 03:57:54 31° SW 04:02:22 42° S 04:15:09 10° ESE visible
9 Feb 10.7 05:56:14 10° W 06:06:43 35° SSW 06:19:16 10° SE visible
10 Feb 10.6 01:27:34 24° ESE 01:27:34 24° ESE 01:33:15 10° E visible
10 Feb 9.8 03:24:48 38° SSW 03:27:04 41° S 03:39:20 10° ESE visible
10 Feb 10.5 05:22:03 13° WSW 05:31:18 36° SSW 05:43:50 10° SE visible
11 Feb 11.0 00:54:28 16° ESE 00:54:28 16° ESE 00:57:12 10° E visible
11 Feb 9.8 02:51:42 39° S 02:51:50 39° S 03:03:29 10° ESE visible
11 Feb 10.3 04:48:57 20° WSW 04:55:55 37° SSW 05:08:18 10° SE visible
12 Feb 10.1 02:18:37 35° SSE 02:18:37 35° SSE 02:27:37 10° ESE visible
12 Feb 10.0 04:15:51 27° SW 04:20:35 37° S 04:32:41 10° SE visible
13 Feb 10.4 01:45:33 27° SE 01:45:33 27° SE 01:51:44 10° ESE visible
13 Feb 9.8 03:42:47 34° SSW 03:45:18 37° S 03:57:00 10° SE visible
13 Feb 10.7 05:40:32 10° WSW 05:49:17 26° SSW 05:59:53 10° SSE visible
14 Feb 10.8 01:12:30 19° ESE 01:12:30 19° ESE 01:15:51 10° ESE visible
14 Feb 9.8 03:09:45 37° S 03:10:06 37° S 03:21:17 10° SE visible
14 Feb 10.4 05:06:59 14° WSW 05:14:00 27° SSW 05:24:37 10° SSE visible
15 Feb 11.1 00:39:29 11° ESE 00:39:29 11° ESE 00:39:59 10° ESE visible
15 Feb 10.0 02:36:44 34° SSE 02:36:44 34° SSE 02:45:31 10° ESE visible
15 Feb 10.2 04:33:59 21° WSW 04:38:45 28° SSW 04:49:16 10° SSE visible
16 Feb 10.3 02:03:45 27° SE 02:03:45 27° SE 02:09:46 10° ESE visible
16 Feb 10.0 04:01:00 26° SW 04:03:33 29° SSW 04:13:48 10° SSE visible
16 Feb 10.8 06:01:32 10° WSW 06:07:07 15° SW 06:13:24 10° S visible
